| time (UTC) | temp F | wind direction | speed knots | gust knots | rain 1hr in | rain 24hr in | rain mn in | humidity % | barometer mb |
| 20260503193045 | 57 | 187 | 0.9 | 6.1 | 0.00 | 0.01 | 0.01 | 73 | 1013.7 |
| 20260503191602 | 57 | 0 | 1.7 | 7.8 | 0.00 | 0.01 | 0.01 | 72 | 1013.7 |
| 20260503190035 | 57 | 0 | 1.7 | 7.0 | 0.00 | 0.01 | 0.01 | 71 | 1013.7 |
| 20260503184537 | 58 | 161 | 0.0 | 7.0 | 0.00 | 0.01 | 0.01 | 72 | 1013.7 |
| 20260503183035 | 56 | 159 | 0.9 | 6.1 | 0.00 | 0.01 | 0.01 | 75 | 1013.7 |
| 20260503181546 | 56 | 0 | 1.7 | 8.7 | 0.00 | 0.01 | 0.01 | 75 | 1013.7 |
| 20260503180038 | 55 | 0 | 0.0 | 7.0 | 0.00 | 0.01 | 0.01 | 77 | 1013.7 |
| 20260503174539 | 55 | 197 | 0.0 | 7.0 | 0.00 | 0.01 | 0.01 | 79 | 1013.9 |
| 20260503173032 | 55 | 0 | 0.9 | 7.8 | 0.00 | 0.01 | 0.01 | 84 | 1013.6 |
| 20260503171534 | 53 | 0 | 0.0 | 6.1 | 0.00 | 0.01 | 0.01 | 87 | 1013.7 |
| 20260503081539 | 50 | 0 | 0.0 | 5.2 | 0.00 | 0.00 | 0.00 | 90 | 1012.2 |
| 20260503071531 | 51 | 0 | 0.0 | 4.3 | 0.00 | 0.00 | 0.00 | 89 | 1012.4 |
| 20260503054549 | 51 | 175 | 0.0 | 5.2 | 0.00 | 0.00 | 0.00 | 89 | 1012.5 |
| 20260503053032 | 51 | 0 | 0.0 | 5.2 | 0.00 | 0.00 | 0.00 | 88 | 1012.6 |
| 20260503051534 | 51 | 175 | 0.9 | 6.1 | 0.00 | 0.00 | 0.00 | 88 | 1012.7 |
| 20260503050040 | 51 | 0 | 1.7 | 7.0 | 0.00 | 0.00 | 0.00 | 88 | 1012.8 |
| 20260503044540 | 52 | 172 | 1.7 | 8.7 | 0.00 | 0.00 | 0.00 | 87 | 1012.6 |
| 20260503043050 | 52 | 163 | 0.0 | 6.1 | 0.00 | 0.00 | 0.00 | 87 | 1012.3 |
| 20260503041538 | 53 | 157 | 0.9 | 7.0 | 0.00 | 0.00 | 0.00 | 86 | 1012.4 |
| 20260503040036 | 53 | 0 | 0.9 | 7.0 | 0.00 | 0.00 | 0.00 | 86 | 1012.1 |
| 20260503034540 | 54 | 0 | 0.9 | 3.5 | 0.00 | 0.00 | 0.00 | 85 | 1012.0 |
| 20260503033032 | 54 | 0 | 0.0 | 0.0 | 0.00 | 0.00 | 0.00 | 85 | 1011.7 |
| 20260503031532 | 55 | 0 | 0.0 | 2.6 | 0.00 | 0.00 | 0.00 | 85 | 1011.6 |
| 20260503030037 | 55 | 0 | 0.0 | 0.0 | 0.00 | 0.00 | 0.00 | 85 | 1011.6 |
| 20260503024537 | 56 | 0 | 0.0 | 0.9 | 0.00 | 0.00 | 0.00 | 84 | 1011.6 |
| 20260503023030 | 56 | 0 | 0.0 | 0.0 | 0.00 | 0.00 | 0.00 | 83 | 1011.4 |
| 20260503021538 | 57 | 0 | 0.0 | 0.9 | 0.00 | 0.00 | 0.00 | 82 | 1011.4 |
| 20260503020033 | 58 | 0 | 0.0 | 0.0 | 0.00 | 0.00 | 0.00 | 80 | 1011.5 |
| 20260503014538 | 59 | 0 | 0.0 | 0.0 | 0.00 | 0.00 | 0.00 | 80 | 1011.5 |
| 20260503013040 | 59 | 0 | 0.0 | 1.7 | 0.00 | 0.00 | 0.00 | 78 | 1011.6 |
| 20260503011533 | 60 | 0 | 0.0 | 2.6 | 0.00 | 0.00 | 0.00 | 77 | 1011.6 |
| 20260503010032 | 60 | 0 | 0.0 | 1.7 | 0.00 | 0.00 | 0.00 | 77 | 1011.6 |
| 20260503004536 | 61 | 0 | 0.0 | 4.3 | 0.00 | 0.00 | 0.00 | 75 | 1011.5 |
| 20260503003044 | 62 | 0 | 0.0 | 0.9 | 0.00 | 0.00 | 0.00 | 75 | 1011.5 |
| 20260503001541 | 63 | 0 | 0.0 | 2.6 | 0.00 | 0.00 | 0.00 | 73 | 1011.6 |
| 20260503000036 | 64 | 0 | 0.0 | 4.3 | 0.00 | 0.00 | 0.00 | 74 | 1011.6 |
| 20260502234546 | 64 | 0 | 0.0 | 3.5 | 0.00 | 0.00 | 0.00 | 72 | 1011.7 |
| 20260502233041 | 63 | 0 | 0.0 | 4.3 | 0.00 | 0.00 | 0.00 | 74 | 1011.9 |
| 20260502231538 | 63 | 0 | 0.0 | 3.5 | 0.00 | 0.00 | 0.00 | 74 | 1012.0 |
| 20260502230039 | 63 | 0 | 0.9 | 7.0 | 0.00 | 0.00 | 0.00 | 73 | 1012.4 |
| 20260502224542 | 65 | 0 | 0.0 | 4.3 | 0.00 | 0.00 | 0.00 | 72 | 1012.7 |
| 20260502223040 | 62 | 0 | 0.0 | 5.2 | 0.00 | 0.00 | 0.00 | 74 | 1012.8 |
| 20260502221533 | 63 | 0 | 1.7 | 5.2 | 0.00 | 0.00 | 0.00 | 75 | 1013.1 |
| 20260502220038 | 63 | 163 | 1.7 | 7.8 | 0.00 | 0.00 | 0.00 | 75 | 1013.4 |
| 20260502214544 | 63 | 165 | 0.9 | 11.3 | 0.00 | 0.00 | 0.00 | 75 | 1013.5 |
| 20260502213032 | 63 | 0 | 0.9 | 5.2 | 0.00 | 0.00 | 0.00 | 74 | 1013.6 |
| 20260502211538 | 62 | 172 | 0.0 | 5.2 | 0.00 | 0.00 | 0.00 | 78 | 1013.6 |
| 20260502210037 | 60 | 0 | 0.0 | 5.2 | 0.00 | 0.00 | 0.00 | 80 | 1013.8 |
| 20260502204533 | 59 | 0 | 0.0 | 2.6 | 0.00 | 0.00 | 0.00 | 80 | 1014.0 |
| 20260502203033 | 58 | 0 | 0.0 | 3.5 | 0.00 | 0.00 | 0.00 | 81 | 1014.2 |
| 20260502201530 | 58 | 187 | 0.0 | 3.5 | 0.00 | 0.00 | 0.00 | 82 | 1014.4 |
| 20260502200039 | 58 | 0 | 0.0 | 3.5 | 0.00 | 0.00 | 0.00 | 84 | 1014.6 |
| 20260502194538 | 56 | 0 | 0.0 | 4.3 | 0.00 | 0.00 | 0.00 | 85 | 1014.9 |